sat.trackr.live / text

‹ back to catalog

STARLINK-30910

NORAD 58376 · 2023-178C

PAYLOAD ACTIVE UNKNOWN

§ Identity

Operator
Country
US
Launch date
2023-11-20
Launch site
AFWTR
Launch vehicle
Mass (kg)
RCS (m²)

Purposes: comms

External: N2YO · Heavens-Above · Gunter

§ Orbital elements

Epoch: 2026-05-25T00:57:09.630720Z

Period
93.85 min
Inclination
53.1592°
Eccentricity
0.0000944
Mean motion
15.34395727 rev/d
Perigee alt
462.1 km
Apogee alt
463.4 km
Semi-major
6,840.9 km
B*
4.1944e-5
RAAN
5.5381°
Arg perigee
78.8793°
Mean anomaly
281.2315°
Rev number
14,159

§ Raw data

STARLINK-309101 58376U 23178C   26145.03969480  .00001041  00000+0  41944-4 0  99982 58376  53.1592   5.5381 0000944  78.8793 281.2315 15.34395727141595

JSON: /api/v1/satellites/58376 · /tle

For live sub-satellite position, see the globe view (requires WebGL).

§ Visibility from observer

Set your observer location to see the next 7 days of passes ≥ 10°. The values pass through the URL so the page stays shareable.

No JS? Fill the form by hand. The geolocation button needs JavaScript.